Weather History for Pipestone, MN

Change the Weather History Date:

Monday, December 2, 2013

  Actual Average Record
Temperature  
Mean Temperature 37 °F -  
Max Temperature 46 °F 33 °F 62 °F (1998)
Min Temperature 28 °F 18 °F -11 °F (2005)
Degree Days  
Heating Degree Days 28    
Moisture  
Dew Point 28 °F    
Average Humidity 76    
Maximum Humidity 93    
Minimum Humidity 53    
Precipitation  
Precipitation 0.00 in - - ()
Sea Level Pressure  
Sea Level Pressure 29.57 in    
Wind  
Wind Speed 9 mph (SSW)    
Max Wind Speed 16 mph    
Max Gust Speed 20 mph    
Visibility 9 miles    
Events Snow    
Averages and records for this station are not official NWS values.
T = Trace of Precipitation, MM = Missing Value Source: NWS Daily Summary

Daily Weather History Graph

Daily Weather History Graph

Search for Another Location

Airport:

Trip Planner

Search our weather history database for the weather conditions in past years. The results will help you decide how hot, cold, wet, or windy it might be!

Date:

Astronomy

Dec. 02, 2013 Rise Set
Actual Time 7:41 AM CST 4:48 PM CST
Civil Twilight 7:08 AM CST 5:20 PM CST
Nautical Twilight 6:32 AM CST 5:56 PM CST
Astronomical Twilight 5:57 AM CST 6:31 PM CST
Moon 7:06 AM CST (12/2) 4:53 PM CST (12/2)
Length of Visible Light 10h 11m
Length of Day
9h 06m
Waning Crescent, 0% of the Moon is Illuminated
Dec 2
Waning Crescent
Dec 2
New
Dec 9
First Quarter
Dec 17
Full
Dec 25
Last Quarter

Hourly Weather History & Observations

Time (CST) Temp. Windchill Dew Point Humidity Pressure Visibility Wind Dir Wind Speed Gust Speed Precip Events Conditions
12:13 AM 30.2 °F 21.3 °F 24.8 °F 80% 29.78 in 10.0 mi South 10.4 mph - N/A   Overcast
12:33 AM 30.2 °F 22.6 °F 24.8 °F 80% 29.78 in 10.0 mi South 8.1 mph - N/A   Overcast
12:53 AM 30.2 °F 24.3 °F 24.8 °F 80% 29.77 in 10.0 mi SSE 5.8 mph - N/A   Overcast
1:14 AM 30.2 °F 24.3 °F 24.8 °F 80% 29.76 in 10.0 mi SSE 5.8 mph - N/A   Overcast
1:33 AM 30.2 °F 22.6 °F 24.8 °F 80% 29.75 in 10.0 mi SSE 8.1 mph - N/A   Overcast
1:53 AM 30.2 °F 22.6 °F 26.6 °F 86% 29.75 in 10.0 mi SSE 8.1 mph - N/A   Mostly Cloudy
2:13 AM 30.2 °F 22.6 °F 24.8 °F 80% 29.74 in 10.0 mi SSE 8.1 mph - N/A   Mostly Cloudy
2:33 AM 30.2 °F 22.6 °F 26.6 °F 86% 29.74 in 10.0 mi SSE 8.1 mph - N/A   Mostly Cloudy
2:53 AM 30.2 °F 22.6 °F 26.6 °F 86% 29.73 in 10.0 mi SSE 8.1 mph - N/A   Overcast
3:13 AM 30.2 °F 21.9 °F 26.6 °F 86% 29.72 in 10.0 mi SSE 9.2 mph - N/A   Overcast
3:33 AM 30.2 °F 21.9 °F 26.6 °F 86% 29.71 in 10.0 mi SSE 9.2 mph - N/A   Overcast
3:54 AM 30.2 °F 22.6 °F 26.6 °F 86% 29.69 in 10.0 mi SSE 8.1 mph - N/A   Overcast
4:13 AM 30.2 °F 21.3 °F 26.6 °F 86% 29.68 in 10.0 mi SSE 10.4 mph - N/A   Mostly Cloudy
4:33 AM 30.2 °F 21.9 °F 26.6 °F 86% 29.66 in 7.0 mi SSE 9.2 mph - N/A   Mostly Cloudy
4:53 AM 30.2 °F 20.2 °F 26.6 °F 86% 29.65 in 10.0 mi SSE 12.7 mph 16.1 mph N/A   Mostly Cloudy
5:13 AM 30.2 °F 21.9 °F 26.6 °F 86% 29.64 in 7.0 mi SSE 9.2 mph - N/A   Overcast
5:33 AM 30.2 °F 21.3 °F 26.6 °F 86% 29.64 in 7.0 mi SSE 10.4 mph - N/A   Mostly Cloudy
5:53 AM 30.2 °F 20.8 °F 26.6 °F 86% 29.62 in 7.0 mi SSE 11.5 mph - N/A   Overcast
6:13 AM 30.2 °F 20.2 °F 26.6 °F 86% 29.61 in 7.0 mi SSE 12.7 mph - N/A   Mostly Cloudy
6:33 AM 32.0 °F 22.5 °F 26.6 °F 80% 29.60 in 7.0 mi SSE 12.7 mph - N/A   Overcast
6:53 AM 32.0 °F 23.6 °F 26.6 °F 80% 29.59 in 7.0 mi SSE 10.4 mph 17.3 mph N/A   Overcast
7:13 AM 32.0 °F 24.2 °F 26.6 °F 80% 29.59 in 10.0 mi SSE 9.2 mph - N/A   Mostly Cloudy
7:33 AM 32.0 °F 23.6 °F 26.6 °F 80% 29.57 in 7.0 mi SSE 10.4 mph - N/A   Mostly Cloudy
7:53 AM 32.0 °F 22.1 °F 28.4 °F 87% 29.58 in 7.0 mi South 13.8 mph 17.3 mph N/A   Overcast
8:13 AM 33.8 °F 24.8 °F 28.4 °F 81% 29.58 in 7.0 mi South 12.7 mph - N/A   Scattered Clouds
8:33 AM 33.8 °F 25.3 °F 28.4 °F 81% 29.57 in 7.0 mi South 11.5 mph - N/A   Mostly Cloudy
8:53 AM 33.8 °F 25.8 °F 28.4 °F 81% 29.56 in 4.0 mi SSE 10.4 mph - N/A   Mostly Cloudy
9:13 AM 33.8 °F 23.9 °F 30.2 °F 87% 29.54 in 5.0 mi SSE 15.0 mph 19.6 mph N/A   Mostly Cloudy
9:34 AM 35.6 °F 27.5 °F 30.2 °F 81% - 7.0 mi SSE 11.5 mph - N/A   Scattered Clouds
9:53 AM 35.6 °F 27.1 °F 30.2 °F 81% 29.53 in 7.0 mi South 12.7 mph - N/A   Mostly Cloudy
10:13 AM 35.6 °F 26.6 °F 30.2 °F 81% 29.54 in 7.0 mi South 13.8 mph - N/A   Overcast
10:33 AM 37.4 °F 29.3 °F 32.0 °F 81% 29.54 in 7.0 mi South 12.7 mph - N/A   Scattered Clouds
10:54 AM 37.4 °F 29.3 °F 32.0 °F 81% 29.53 in 10.0 mi South 12.7 mph - N/A   Scattered Clouds
11:13 AM 39.2 °F 31.2 °F 30.2 °F 70% 29.52 in 10.0 mi SSW 13.8 mph - N/A   Scattered Clouds
11:33 AM 39.2 °F 30.5 °F 32.0 °F 75% 29.52 in 10.0 mi SSW 16.1 mph - N/A   Clear
11:53 AM 41.0 °F 33.9 °F 32.0 °F 70% 29.52 in 10.0 mi SW 12.7 mph - N/A   Clear
12:13 PM 41.0 °F 34.3 °F 30.2 °F 65% 29.50 in 10.0 mi SSW 11.5 mph - N/A   Clear
12:33 PM 42.8 °F 37.0 °F 30.2 °F 61% 29.50 in 10.0 mi SSW 10.4 mph - N/A   Clear
12:53 PM 42.8 °F 37.5 °F 30.2 °F 61% 29.49 in 10.0 mi SW 9.2 mph - N/A   Clear
1:14 PM 44.6 °F 39.2 °F 30.2 °F 57% 29.49 in 10.0 mi SW 10.4 mph - N/A   Clear
1:33 PM 42.8 °F 37.5 °F 30.2 °F 61% 29.48 in 10.0 mi SW 9.2 mph - N/A   Clear
1:53 PM 44.6 °F 40.2 °F 30.2 °F 57% 29.47 in 10.0 mi SW 8.1 mph - N/A   Clear
2:13 PM 44.6 °F 40.2 °F 30.2 °F 57% 29.47 in 10.0 mi WSW 8.1 mph - N/A   Clear
2:33 PM 44.6 °F 40.7 °F 30.2 °F 57% 29.46 in 10.0 mi WSW 6.9 mph - N/A   Clear
2:53 PM 44.6 °F 39.7 °F 30.2 °F 57% 29.47 in 10.0 mi WSW 9.2 mph - N/A   Clear
3:13 PM 46.4 °F 43.5 °F 30.2 °F 53% 29.46 in 10.0 mi West 5.8 mph - N/A   Clear
3:33 PM 46.4 °F 42.4 °F 30.2 °F 53% 29.47 in 10.0 mi WSW 8.1 mph - N/A   Clear
3:53 PM 46.4 °F 42.9 °F 30.2 °F 53% 29.47 in 10.0 mi WSW 6.9 mph - N/A   Clear
4:14 PM 44.6 °F 41.4 °F 30.2 °F 57% 29.48 in 10.0 mi WSW 5.8 mph - N/A   Clear
4:33 PM 42.8 °F 38.6 °F 28.4 °F 57% 29.48 in 10.0 mi SW 6.9 mph - N/A   Clear
4:53 PM 39.2 °F 34.2 °F 28.4 °F 65% 29.48 in 10.0 mi SW 6.9 mph - N/A   Clear
5:13 PM 37.4 °F 33.8 °F 28.4 °F 70% 29.48 in 10.0 mi SW 4.6 mph - N/A   Clear
5:33 PM 37.4 °F 32.1 °F 28.4 °F 70% 29.49 in 10.0 mi SW 6.9 mph - N/A   Clear
5:53 PM 35.6 °F 30.7 °F 26.6 °F 70% 29.49 in 10.0 mi SW 5.8 mph - N/A   Clear
6:13 PM 37.4 °F 32.8 °F 28.4 °F 70% 29.50 in 10.0 mi WSW 5.8 mph - N/A   Clear
6:33 PM 35.6 °F 29.9 °F 26.6 °F 70% 29.51 in 10.0 mi WSW 6.9 mph - N/A   Clear
6:53 PM 35.6 °F 32.8 °F 26.6 °F 70% 29.52 in 10.0 mi West 3.5 mph - N/A   Clear
7:13 PM 35.6 °F 30.7 °F 28.4 °F 75% 29.52 in 10.0 mi West 5.8 mph - N/A   Clear
7:33 PM 33.8 °F 30.8 °F 26.6 °F 75% 29.51 in 10.0 mi WSW 3.5 mph - N/A   Scattered Clouds
7:53 PM 33.8 °F 30.8 °F 26.6 °F 75% 29.52 in 10.0 mi West 3.5 mph - N/A   Scattered Clouds
8:13 PM 33.8 °F 29.6 °F 26.6 °F 75% 29.52 in 10.0 mi WSW 4.6 mph - N/A   Mostly Cloudy
8:33 PM 33.8 °F 28.6 °F 28.4 °F 81% 29.53 in 10.0 mi West 5.8 mph - N/A   Overcast
8:53 PM 35.6 °F 32.8 °F 28.4 °F 75% 29.52 in 10.0 mi West 3.5 mph - N/A   Overcast
9:13 PM 33.8 °F - 26.6 °F 75% 29.52 in 10.0 mi Calm Calm - N/A   Scattered Clouds
9:33 PM 32.0 °F - 26.6 °F 80% 29.53 in 10.0 mi Calm Calm - N/A   Clear
9:53 PM 35.6 °F 31.7 °F 28.4 °F 75% 29.52 in 10.0 mi NNW 4.6 mph - N/A   Clear
10:13 PM 33.8 °F 29.6 °F 26.6 °F 75% 29.53 in 10.0 mi WNW 4.6 mph - N/A   Clear
10:33 PM 30.2 °F - 26.6 °F 86% 29.53 in 10.0 mi Calm Calm - N/A   Clear
10:53 PM 32.0 °F 28.7 °F 26.6 °F 80% 29.53 in 10.0 mi North 3.5 mph - N/A   Clear
11:13 PM 30.2 °F 23.4 °F 26.6 °F 86% 29.53 in 10.0 mi NNE 6.9 mph - N/A   Clear
11:33 PM 28.4 °F 21.2 °F 26.6 °F 93% 29.54 in 7.0 mi NNE 6.9 mph - N/A   Scattered Clouds
11:54 PM 28.4 °F 20.4 °F 26.6 °F 93% 29.54 in 0.2 mi NNE 8.1 mph - N/A Snow Light Snow